Location: ?????
(31.8092°N, 35.2590°E)
Time: 13:49:44
(UTC+00:00)

Cosmos 2100 Rocket - Pass Details

Date: 20 June 2021
Orbit: 955 x 1001 km, 82.9° (Epoch: 01 August)

Event Time Altitude Azimuth Distance (km) Brightness Sun altitude
Rises 18:14:32 0° 2° (N) 3,720 7.6 -16.0°
Reaches altitude 10° 18:17:13 10° 9° (N) 2,763 6.8 -16.4°
Maximum altitude 18:23:15 44° 80° (E) 1,331 4.4 -17.3°
Enters shadow 18:26:04 28° 133° (SE) 1,746 4.7 -17.8°
